| time (UTC) | temp F | wind direction | speed MPH | gust MPH | rain 1hr in | rain 24hr in | rain mn in | humidity % | barometer mb |
| 20260505153321 | 48 | 254 | 3.0 | 7.0 | 0.00 | 0.00 | 0.00 | 61 | 1008.8 |
| 20260505152817 | 48 | 276 | 3.0 | 7.0 | 0.00 | 0.00 | 0.00 | 58 | 1008.9 |
| 20260505152335 | 48 | 257 | 4.0 | 7.0 | 0.00 | 0.00 | 0.00 | 56 | 1009.1 |
| 20260505151825 | 48 | 229 | 2.0 | 7.0 | 0.00 | 0.00 | 0.00 | 58 | 1008.9 |
| 20260505151333 | 48 | 258 | 3.0 | 5.0 | 0.00 | 0.00 | 0.00 | 58 | 1008.9 |
| 20260505150824 | 48 | 274 | 3.0 | 6.0 | 0.00 | 0.00 | 0.00 | 58 | 1008.9 |
| 20260505150318 | 47 | 273 | 2.0 | 7.0 | 0.00 | 0.00 | 0.00 | 59 | 1009.0 |
| 20260505140329 | 46 | 279 | 2.0 | 5.0 | 0.00 | 0.00 | 0.00 | 59 | 1008.8 |
| 20260505124826 | 46 | 314 | 3.0 | 8.0 | 0.00 | 0.00 | 0.00 | 59 | 1008.6 |
| 20260505124354 | 46 | 319 | 4.0 | 8.0 | 0.00 | 0.00 | 0.00 | 59 | 1008.4 |
| 20260505123832 | 46 | 338 | 2.0 | 8.0 | 0.00 | 0.00 | 0.00 | 60 | 1007.8 |
| 20260505123317 | 46 | 287 | 2.0 | 8.0 | 0.00 | 0.00 | 0.00 | 61 | 1007.4 |
| 20260505122848 | 46 | 309 | 3.0 | 6.0 | 0.00 | 0.00 | 0.00 | 61 | 1007.2 |
| 20260505122344 | 46 | 294 | 2.0 | 6.0 | 0.00 | 0.00 | 0.00 | 60 | 1007.2 |
| 20260505121849 | 45 | 299 | 2.0 | 6.0 | 0.00 | 0.00 | 0.00 | 60 | 1006.9 |
| 20260505121341 | 45 | 328 | 3.0 | 6.0 | 0.00 | 0.00 | 0.00 | 60 | 1006.8 |
| 20260505120831 | 45 | 294 | 2.0 | 5.0 | 0.00 | 0.00 | 0.00 | 59 | 1006.8 |
| 20260505120337 | 45 | 305 | 1.0 | 5.0 | 0.00 | 0.00 | 0.00 | 60 | 1006.5 |
| 20260505115826 | 45 | 318 | 2.0 | 5.0 | 0.00 | 0.00 | 0.00 | 60 | 1006.8 |
| 20260505115322 | 45 | 284 | 2.0 | 5.0 | 0.00 | 0.00 | 0.00 | 62 | 1006.7 |
| 20260505114815 | 45 | 321 | 2.0 | 5.0 | 0.00 | 0.00 | 0.00 | 64 | 1006.8 |
| 20260505114353 | 45 | 295 | 1.0 | 4.0 | 0.00 | 0.00 | 0.00 | 63 | 1006.8 |
| 20260505113823 | 45 | 292 | 2.0 | 9.0 | 0.00 | 0.00 | 0.00 | 63 | 1006.8 |
| 20260505113319 | 45 | 260 | 4.0 | 9.0 | 0.00 | 0.00 | 0.00 | 64 | 1006.8 |
| 20260505112837 | 45 | 305 | 3.0 | 6.0 | 0.00 | 0.00 | 0.00 | 67 | 1006.7 |
| 20260505112331 | 45 | 279 | 2.0 | 6.0 | 0.00 | 0.00 | 0.00 | 69 | 1006.7 |
| 20260505111820 | 45 | 315 | 2.0 | 6.0 | 0.00 | 0.00 | 0.00 | 70 | 1006.7 |
| 20260505111318 | 45 | 282 | 3.0 | 7.0 | 0.00 | 0.00 | 0.00 | 70 | 1006.2 |
| 20260505110834 | 45 | 288 | 2.0 | 9.0 | 0.00 | 0.00 | 0.00 | 71 | 1006.2 |
| 20260505110321 | 45 | 342 | 3.0 | 9.0 | 0.00 | 0.00 | 0.00 | 70 | 1006.0 |
| 20260505101841 | 45 | 304 | 2.0 | 8.0 | 0.00 | 0.00 | 0.00 | 71 | 1005.4 |
| 20260505101350 | 45 | 309 | 3.0 | 9.0 | 0.00 | 0.00 | 0.00 | 72 | 1005.5 |
| 20260505100824 | 45 | 301 | 3.0 | 10.0 | 0.00 | 0.00 | 0.00 | 72 | 1005.4 |
| 20260505100351 | 45 | 309 | 4.0 | 13.0 | 0.00 | 0.00 | 0.00 | 72 | 1005.3 |
| 20260505095822 | 45 | 333 | 6.0 | 13.0 | 0.00 | 0.00 | 0.00 | 73 | 1005.4 |
| 20260505095329 | 44 | 292 | 4.0 | 11.0 | 0.00 | 0.00 | 0.00 | 73 | 1005.1 |
| 20260505094823 | 45 | 350 | 6.0 | 10.0 | 0.00 | 0.00 | 0.00 | 73 | 1005.0 |
| 20260505094337 | 45 | 302 | 4.0 | 9.0 | 0.00 | 0.00 | 0.00 | 73 | 1004.8 |
| 20260505093829 | 46 | 309 | 2.0 | 7.0 | 0.00 | 0.00 | 0.00 | 71 | 1004.6 |
| 20260505093324 | 46 | 282 | 3.0 | 7.0 | 0.00 | 0.00 | 0.00 | 67 | 1004.4 |
| 20260505092840 | 47 | 325 | 1.0 | 2.0 | 0.00 | 0.00 | 0.00 | 66 | 1004.2 |
| 20260505092328 | 47 | 34 | 0.0 | 2.0 | 0.00 | 0.00 | 0.00 | 64 | 1003.9 |
| 20260505091824 | 47 | 68 | 1.0 | 3.0 | 0.00 | 0.00 | 0.00 | 64 | 1003.8 |
| 20260505091335 | 47 | 66 | 1.0 | 3.0 | 0.00 | 0.00 | 0.00 | 64 | 1003.6 |
| 20260505090828 | 47 | 58 | 1.0 | 2.0 | 0.00 | 0.00 | 0.00 | 64 | 1003.7 |
| 20260505090324 | 48 | 61 | 1.0 | 3.0 | 0.00 | 0.00 | 0.00 | 64 | 1003.7 |
| 20260505085833 | 48 | 67 | 1.0 | 3.0 | 0.00 | 0.00 | 0.00 | 64 | 1003.5 |
| 20260505085322 | 47 | 11 | 0.0 | 3.0 | 0.00 | 0.00 | 0.00 | 64 | 1003.3 |
| 20260505084837 | 47 | 53 | 1.0 | 3.0 | 0.00 | 0.00 | 0.00 | 65 | 1003.2 |
| 20260505084345 | 47 | 46 | 1.0 | 2.0 | 0.00 | 0.00 | 0.00 | 65 | 1003.1 |
| 20260505083845 | 47 | 39 | 0.0 | 3.0 | 0.00 | 0.00 | 0.00 | 66 | 1003.1 |
| 20260505083333 | 47 | 66 | 1.0 | 5.0 | 0.00 | 0.00 | 0.00 | 66 | 1003.1 |
| 20260505082824 | 46 | 11 | 2.0 | 5.0 | 0.00 | 0.00 | 0.00 | 67 | 1003.0 |
| 20260505082333 | 46 | 77 | 1.0 | 3.0 | 0.00 | 0.00 | 0.00 | 68 | 1002.8 |
| 20260505081830 | 46 | 52 | 1.0 | 5.0 | 0.00 | 0.00 | 0.00 | 69 | 1002.7 |
| 20260505081413 | 45 | 15 | 2.0 | 5.0 | 0.00 | 0.00 | 0.00 | 70 | 1002.7 |
| 20260505080829 | 45 | 355 | 1.0 | 4.0 | 0.00 | 0.00 | 0.00 | 72 | 1002.6 |
| 20260505080334 | 44 | 306 | 1.0 | 4.0 | 0.00 | 0.00 | 0.00 | 73 | 1002.5 |
| 20260505075828 | 44 | 350 | 1.0 | 3.0 | 0.00 | 0.00 | 0.00 | 74 | 1002.3 |
| 20260505075323 | 44 | 335 | 1.0 | 4.0 | 0.00 | 0.00 | 0.00 | 74 | 1002.3 |
| 20260505074839 | 44 | 338 | 1.0 | 4.0 | 0.00 | 0.00 | 0.00 | 74 | 1002.1 |
| 20260505074330 | 44 | 301 | 1.0 | 11.0 | 0.00 | 0.00 | 0.00 | 74 | 1002.0 |
| 20260505073821 | 44 | 298 | 1.0 | 11.0 | 0.00 | 0.00 | 0.00 | 75 | 1001.8 |
| 20260505073330 | 44 | 294 | 6.0 | 11.0 | 0.00 | 0.00 | 0.00 | 74 | 1001.8 |
| 20260505072822 | 44 | 288 | 5.0 | 10.0 | 0.00 | 0.00 | 0.00 | 74 | 1001.7 |
| 20260505072334 | 44 | 291 | 6.0 | 10.0 | 0.00 | 0.00 | 0.00 | 74 | 1001.7 |
| 20260505071823 | 44 | 298 | 5.0 | 9.0 | 0.00 | 0.00 | 0.00 | 73 | 1001.7 |
| 20260505071332 | 44 | 305 | 5.0 | 10.0 | 0.00 | 0.00 | 0.00 | 73 | 1001.7 |
| 20260505070842 | 45 | 293 | 5.0 | 11.0 | 0.00 | 0.00 | 0.00 | 72 | 1001.5 |
| 20260505070326 | 45 | 310 | 4.0 | 11.0 | 0.00 | 0.00 | 0.00 | 71 | 1001.5 |
| 20260505065822 | 46 | 305 | 4.0 | 9.0 | 0.00 | 0.00 | 0.00 | 71 | 1001.5 |
| 20260505065316 | 47 | 292 | 5.0 | 8.0 | 0.00 | 0.00 | 0.00 | 70 | 1001.5 |
| 20260505064833 | 47 | 301 | 3.0 | 9.0 | 0.00 | 0.00 | 0.00 | 68 | 1001.6 |
| 20260505064318 | 48 | 333 | 3.0 | 10.0 | 0.00 | 0.00 | 0.00 | 67 | 1001.7 |
| 20260505063829 | 48 | 320 | 4.0 | 10.0 | 0.00 | 0.00 | 0.00 | 66 | 1001.8 |
| 20260505063324 | 49 | 302 | 3.0 | 6.0 | 0.00 | 0.00 | 0.00 | 65 | 1001.7 |
| 20260505062833 | 50 | 306 | 2.0 | 12.0 | 0.00 | 0.00 | 0.00 | 65 | 1001.7 |
| 20260505062327 | 50 | 11 | 4.0 | 12.0 | 0.00 | 0.00 | 0.00 | 66 | 1001.5 |
| 20260505061822 | 50 | 317 | 5.0 | 12.0 | 0.00 | 0.00 | 0.00 | 65 | 1001.3 |
| 20260505061337 | 50 | 281 | 6.0 | 12.0 | 0.00 | 0.00 | 0.00 | 64 | 1001.2 |
| 20260505060829 | 51 | 277 | 7.0 | 10.0 | 0.00 | 0.00 | 0.00 | 64 | 1001.2 |
| 20260505060326 | 51 | 281 | 5.0 | 10.0 | 0.00 | 0.00 | 0.00 | 65 | 1001.2 |
| 20260505055829 | 51 | 282 | 6.0 | 10.0 | 0.00 | 0.00 | 0.00 | 65 | 1001.0 |
| 20260505055343 | 51 | 309 | 4.0 | 6.0 | 0.00 | 0.00 | 0.00 | 65 | 1001.0 |
| 20260505054851 | 51 | 304 | 2.0 | 4.0 | 0.00 | 0.00 | 0.00 | 62 | 1001.0 |
| 20260505054336 | 51 | 287 | 1.0 | 5.0 | 0.00 | 0.00 | 0.00 | 62 | 1000.9 |
| 20260505053828 | 51 | 334 | 1.0 | 5.0 | 0.00 | 0.00 | 0.00 | 64 | 1001.1 |
| 20260505053326 | 51 | 306 | 3.0 | 5.0 | 0.00 | 0.00 | 0.00 | 64 | 1001.1 |
| 20260505052843 | 51 | 303 | 1.0 | 5.0 | 0.00 | 0.00 | 0.00 | 65 | 1001.1 |
| 20260505052316 | 51 | 316 | 2.0 | 7.0 | 0.00 | 0.00 | 0.00 | 64 | 1001.1 |
| 20260505051830 | 52 | 316 | 4.0 | 7.0 | 0.00 | 0.00 | 0.00 | 62 | 1001.1 |
| 20260505051323 | 52 | 301 | 3.0 | 9.0 | 0.00 | 0.00 | 0.00 | 61 | 1001.0 |
| 20260505050815 | 52 | 313 | 3.0 | 9.0 | 0.00 | 0.00 | 0.00 | 63 | 1001.0 |
| 20260505050332 | 52 | 338 | 1.0 | 4.0 | 0.00 | 0.00 | 0.00 | 64 | 1000.7 |
| 20260505041355 | 52 | 304 | 2.0 | 4.0 | 0.00 | 0.00 | 0.00 | 69 | 1000.0 |
| 20260505040818 | 53 | 311 | 2.0 | 3.0 | 0.00 | 0.00 | 0.00 | 69 | 999.8 |
| 20260505040315 | 53 | 306 | 1.0 | 5.0 | 0.00 | 0.00 | 0.00 | 67 | 999.9 |
| 20260505035825 | 53 | 313 | 2.0 | 8.0 | 0.00 | 0.00 | 0.00 | 66 | 999.8 |
| 20260505035338 | 53 | 271 | 3.0 | 8.0 | 0.00 | 0.00 | 0.00 | 66 | 1000.0 |
| 20260505034827 | 54 | 269 | 5.0 | 10.0 | 0.00 | 0.00 | 0.00 | 65 | 1000.0 |
| 20260505034325 | 55 | 254 | 6.0 | 10.0 | 0.00 | 0.00 | 0.00 | 64 | 1000.0 |
| 20260505033839 | 54 | 274 | 7.0 | 9.0 | 0.00 | 0.00 | 0.00 | 63 | 1000.0 |
| 20260505033333 | 54 | 271 | 4.0 | 8.0 | 0.00 | 0.00 | 0.00 | 65 | 999.9 |
| 20260505032823 | 54 | 250 | 6.0 | 8.0 | 0.00 | 0.00 | 0.00 | 66 | 999.7 |
| 20260505032352 | 53 | 281 | 3.0 | 8.0 | 0.00 | 0.00 | 0.00 | 67 | 999.7 |
| 20260505031827 | 53 | 286 | 4.0 | 8.0 | 0.00 | 0.00 | 0.00 | 68 | 999.8 |
| 20260505031329 | 53 | 265 | 6.0 | 8.0 | 0.00 | 0.00 | 0.00 | 68 | 999.9 |
| 20260505030820 | 53 | 278 | 3.0 | 6.0 | 0.00 | 0.00 | 0.00 | 68 | 1000.0 |
| 20260505030336 | 53 | 278 | 3.0 | 7.0 | 0.00 | 0.00 | 0.00 | 66 | 1000.0 |
| 20260505025825 | 54 | 285 | 2.0 | 10.0 | 0.00 | 0.00 | 0.00 | 64 | 1000.0 |
| 20260505025321 | 53 | 218 | 5.0 | 10.0 | 0.00 | 0.00 | 0.00 | 65 | 999.9 |
| 20260505024836 | 51 | 229 | 4.0 | 9.0 | 0.00 | 0.00 | 0.00 | 68 | 999.9 |
| 20260505024330 | 50 | 263 | 3.0 | 5.0 | 0.00 | 0.00 | 0.00 | 69 | 1000.0 |
| 20260505023826 | 50 | 232 | 1.0 | 5.0 | 0.00 | 0.00 | 0.00 | 69 | 1000.0 |
| 20260505023317 | 51 | 216 | 2.0 | 6.0 | 0.00 | 0.00 | 0.00 | 69 | 999.9 |
| 20260505022814 | 51 | 217 | 2.0 | 6.0 | 0.00 | 0.00 | 0.00 | 70 | 999.8 |
| 20260505022351 | 51 | 221 | 2.0 | 7.0 | 0.00 | 0.00 | 0.00 | 70 | 999.6 |
| 20260505021823 | 51 | 198 | 1.0 | 4.0 | 0.00 | 0.00 | 0.00 | 69 | 999.4 |
| 20260505021317 | 52 | 224 | 2.0 | 4.0 | 0.00 | 0.00 | 0.00 | 69 | 999.2 |
| 20260505020830 | 52 | 209 | 2.0 | 4.0 | 0.00 | 0.00 | 0.00 | 68 | 999.1 |
| 20260505020328 | 53 | 168 | 2.0 | 4.0 | 0.00 | 0.00 | 0.00 | 68 | 999.1 |
| 20260505015824 | 53 | 178 | 1.0 | 4.0 | 0.00 | 0.00 | 0.00 | 67 | 999.0 |
| 20260505015320 | 53 | 220 | 2.0 | 4.0 | 0.00 | 0.00 | 0.00 | 67 | 998.9 |
| 20260505014817 | 53 | 165 | 1.0 | 5.0 | 0.00 | 0.00 | 0.00 | 67 | 998.6 |
| 20260505014334 | 54 | 198 | 2.0 | 8.0 | 0.00 | 0.00 | 0.00 | 66 | 998.5 |
| 20260505013828 | 54 | 273 | 4.0 | 8.0 | 0.00 | 0.00 | 0.00 | 66 | 998.3 |
| 20260505013343 | 54 | 227 | 3.0 | 8.0 | 0.00 | 0.00 | 0.00 | 66 | 998.2 |
| 20260505012818 | 53 | 340 | 2.0 | 5.0 | 0.00 | 0.00 | 0.00 | 66 | 997.8 |
| 20260505012315 | 54 | 293 | 1.0 | 5.0 | 0.00 | 0.00 | 0.00 | 66 | 997.8 |
| 20260505011831 | 54 | 307 | 2.0 | 5.0 | 0.00 | 0.00 | 0.00 | 67 | 997.7 |
| 20260505011327 | 55 | 223 | 1.0 | 5.0 | 0.00 | 0.00 | 0.00 | 65 | 997.4 |
| 20260505010836 | 56 | 270 | 1.0 | 4.0 | 0.00 | 0.00 | 0.00 | 64 | 997.1 |
| 20260505010328 | 56 | 250 | 1.0 | 6.0 | 0.00 | 0.00 | 0.00 | 63 | 996.9 |
| 20260505005824 | 57 | 142 | 2.0 | 6.0 | 0.00 | 0.00 | 0.00 | 62 | 997.0 |
| 20260505005321 | 57 | 121 | 2.0 | 9.0 | 0.00 | 0.00 | 0.00 | 61 | 996.7 |
| 20260505004837 | 57 | 169 | 3.0 | 10.0 | 0.00 | 0.00 | 0.00 | 62 | 996.7 |
| 20260505004330 | 56 | 136 | 3.0 | 10.0 | 0.00 | 0.00 | 0.00 | 62 | 996.7 |
| 20260505003822 | 57 | 151 | 2.0 | 5.0 | 0.00 | 0.00 | 0.00 | 62 | 996.6 |
| 20260505003317 | 57 | 155 | 2.0 | 7.0 | 0.00 | 0.00 | 0.00 | 60 | 996.7 |
| 20260505002833 | 58 | 188 | 2.0 | 11.0 | 0.00 | 0.00 | 0.00 | 60 | 996.5 |
| 20260505002328 | 57 | 48 | 4.0 | 11.0 | 0.00 | 0.00 | 0.00 | 60 | 996.4 |
| 20260505001856 | 57 | 149 | 2.0 | 6.0 | 0.00 | 0.00 | 0.00 | 62 | 996.4 |
| 20260505001329 | 58 | 217 | 2.0 | 8.0 | 0.00 | 0.00 | 0.00 | 59 | 996.4 |
| 20260505000833 | 58 | 142 | 4.0 | 8.0 | 0.00 | 0.00 | 0.00 | 60 | 996.6 |
| 20260505000325 | 59 | 137 | 2.0 | 8.0 | 0.00 | 0.00 | 0.00 | 59 | 996.5 |
| 20260504235842 | 59 | 143 | 2.0 | 8.0 | 0.00 | 0.00 | 0.00 | 58 | 996.4 |
| 20260504235330 | 59 | 154 | 3.0 | 13.0 | 0.00 | 0.00 | 0.00 | 57 | 996.3 |
| 20260504234826 | 60 | 153 | 3.0 | 13.0 | 0.00 | 0.00 | 0.00 | 56 | 996.3 |
| 20260504234320 | 61 | 167 | 4.0 | 8.0 | 0.00 | 0.00 | 0.00 | 55 | 996.3 |
| 20260504233836 | 61 | 132 | 3.0 | 9.0 | 0.00 | 0.00 | 0.00 | 55 | 996.3 |
| 20260504233352 | 61 | 147 | 3.0 | 8.0 | 0.00 | 0.00 | 0.00 | 55 | 996.4 |
| 20260504232823 | 61 | 140 | 3.0 | 8.0 | 0.00 | 0.00 | 0.00 | 55 | 996.4 |
| 20260504232338 | 61 | 189 | 3.0 | 7.0 | 0.00 | 0.00 | 0.00 | 56 | 996.5 |
| 20260504231823 | 61 | 150 | 4.0 | 7.0 | 0.00 | 0.00 | 0.00 | 56 | 996.7 |
| 20260504231337 | 61 | 134 | 3.0 | 7.0 | 0.00 | 0.00 | 0.00 | 55 | 996.8 |
| 20260504230831 | 62 | 165 | 3.0 | 7.0 | 0.00 | 0.00 | 0.00 | 55 | 996.8 |
| 20260504230322 | 62 | 162 | 3.0 | 9.0 | 0.00 | 0.00 | 0.00 | 55 | 997.0 |
| 20260504225817 | 62 | 161 | 4.0 | 9.0 | 0.00 | 0.00 | 0.00 | 55 | 997.1 |
| 20260504225330 | 62 | 134 | 3.0 | 8.0 | 0.00 | 0.00 | 0.00 | 54 | 997.3 |
| 20260504224846 | 62 | 216 | 3.0 | 10.0 | 0.00 | 0.00 | 0.00 | 54 | 997.3 |
| 20260504224322 | 62 | 195 | 4.0 | 15.0 | 0.00 | 0.00 | 0.00 | 55 | 997.4 |
| 20260504223837 | 62 | 216 | 4.0 | 15.0 | 0.00 | 0.00 | 0.00 | 55 | 997.4 |
| 20260504223326 | 61 | 181 | 3.0 | 8.0 | 0.00 | 0.00 | 0.00 | 57 | 997.5 |
| 20260504222836 | 60 | 129 | 3.0 | 10.0 | 0.00 | 0.00 | 0.00 | 58 | 997.5 |
| 20260504222322 | 60 | 148 | 4.0 | 10.0 | 0.00 | 0.00 | 0.00 | 58 | 997.5 |
| 20260504221819 | 60 | 103 | 3.0 | 10.0 | 0.00 | 0.00 | 0.00 | 59 | 997.6 |
| 20260504221335 | 60 | 134 | 4.0 | 8.0 | 0.00 | 0.00 | 0.00 | 59 | 997.6 |
| 20260504220827 | 61 | 153 | 4.0 | 8.0 | 0.00 | 0.00 | 0.00 | 58 | 997.8 |
| 20260504220325 | 61 | 233 | 3.0 | 9.0 | 0.00 | 0.00 | 0.00 | 59 | 997.7 |
| 20260504215815 | 61 | 161 | 3.0 | 10.0 | 0.00 | 0.00 | 0.00 | 58 | 997.9 |
| 20260504215353 | 61 | 173 | 4.0 | 10.0 | 0.00 | 0.00 | 0.00 | 58 | 997.9 |
| 20260504214820 | 61 | 153 | 3.0 | 8.0 | 0.00 | 0.00 | 0.00 | 60 | 998.0 |
| 20260504214317 | 61 | 149 | 4.0 | 9.0 | 0.00 | 0.00 | 0.00 | 60 | 998.1 |
| 20260504213832 | 60 | 223 | 4.0 | 15.0 | 0.00 | 0.00 | 0.00 | 61 | 998.1 |
| 20260504213347 | 60 | 137 | 4.0 | 15.0 | 0.00 | 0.00 | 0.00 | 61 | 998.2 |
| 20260504212836 | 59 | 150 | 3.0 | 11.0 | 0.00 | 0.00 | 0.00 | 62 | 998.3 |
| 20260504212322 | 59 | 141 | 2.0 | 7.0 | 0.00 | 0.00 | 0.00 | 62 | 998.4 |
| 20260504211836 | 59 | 140 | 3.0 | 9.0 | 0.00 | 0.00 | 0.00 | 63 | 998.4 |
| 20260504211326 | 59 | 151 | 3.0 | 9.0 | 0.00 | 0.00 | 0.00 | 63 | 998.5 |
| 20260504210819 | 59 | 195 | 3.0 | 9.0 | 0.00 | 0.00 | 0.00 | 62 | 998.6 |
| 20260504210316 | 59 | 117 | 3.0 | 6.0 | 0.00 | 0.00 | 0.00 | 62 | 998.7 |
| 20260504205829 | 59 | 65 | 2.0 | 5.0 | 0.00 | 0.00 | 0.00 | 62 | 998.8 |
| 20260504205325 | 59 | 139 | 2.0 | 5.0 | 0.00 | 0.00 | 0.00 | 62 | 998.9 |
| 20260504204820 | 59 | 127 | 3.0 | 5.0 | 0.00 | 0.00 | 0.00 | 62 | 999.0 |
| 20260504204331 | 60 | 139 | 3.0 | 5.0 | 0.00 | 0.00 | 0.00 | 60 | 999.0 |
| 20260504203826 | 60 | 139 | 2.0 | 7.0 | 0.00 | 0.00 | 0.00 | 62 | 999.1 |
| 20260504203319 | 60 | 156 | 4.0 | 10.0 | 0.00 | 0.00 | 0.00 | 60 | 999.1 |
| 20260504202831 | 60 | 153 | 3.0 | 10.0 | 0.00 | 0.00 | 0.00 | 61 | 999.1 |
| 20260504202338 | 60 | 200 | 3.0 | 13.0 | 0.00 | 0.00 | 0.00 | 59 | 999.1 |
| 20260504201822 | 60 | 144 | 4.0 | 13.0 | 0.00 | 0.00 | 0.00 | 61 | 999.2 |
| 20260504201351 | 60 | 212 | 4.0 | 10.0 | 0.00 | 0.00 | 0.00 | 60 | 999.3 |
| 20260504200835 | 60 | 217 | 3.0 | 12.0 | 0.00 | 0.00 | 0.00 | 60 | 999.3 |
| 20260504200327 | 60 | 188 | 3.0 | 12.0 | 0.00 | 0.00 | 0.00 | 61 | 999.4 |
| 20260504195818 | 59 | 197 | 5.0 | 11.0 | 0.00 | 0.00 | 0.00 | 61 | 999.5 |
| 20260504195331 | 59 | 173 | 5.0 | 11.0 | 0.00 | 0.00 | 0.00 | 61 | 999.6 |
| 20260504194826 | 59 | 146 | 4.0 | 11.0 | 0.00 | 0.00 | 0.00 | 62 | 999.6 |
| 20260504194341 | 59 | 188 | 3.0 | 9.0 | 0.00 | 0.00 | 0.00 | 61 | 999.7 |
| 20260504193900 | 59 | 142 | 3.0 | 9.0 | 0.00 | 0.00 | 0.00 | 62 | 999.7 |
| 20260504193323 | 58 | 250 | 3.0 | 10.0 | 0.00 | 0.00 | 0.00 | 62 | 999.7 |
| 20260504192834 | 58 | 172 | 4.0 | 10.0 | 0.00 | 0.00 | 0.00 | 61 | 999.8 |
| 20260504192329 | 58 | 13 | 3.0 | 8.0 | 0.00 | 0.00 | 0.00 | 62 | 999.7 |
| 20260504191904 | 57 | 140 | 3.0 | 8.0 | 0.00 | 0.00 | 0.00 | 62 | 999.8 |
| 20260504191329 | 57 | 190 | 3.0 | 8.0 | 0.00 | 0.00 | 0.00 | 62 | 999.8 |
| 20260504190820 | 57 | 171 | 2.0 | 7.0 | 0.00 | 0.00 | 0.00 | 62 | 999.8 |
| 20260504190349 | 57 | 161 | 3.0 | 7.0 | 0.00 | 0.00 | 0.00 | 62 | 999.9 |
| 20260504185841 | 57 | 141 | 2.0 | 6.0 | 0.00 | 0.00 | 0.00 | 61 | 999.8 |
| 20260504185317 | 58 | 148 | 3.0 | 9.0 | 0.00 | 0.00 | 0.00 | 61 | 999.8 |
| 20260504184847 | 58 | 198 | 2.0 | 9.0 | 0.00 | 0.00 | 0.00 | 61 | 999.8 |
| 20260504184340 | 57 | 140 | 2.0 | 7.0 | 0.00 | 0.00 | 0.00 | 62 | 999.9 |
| 20260504183833 | 57 | 144 | 3.0 | 9.0 | 0.00 | 0.00 | 0.00 | 62 | 999.9 |
| 20260504183342 | 57 | 153 | 3.0 | 9.0 | 0.00 | 0.00 | 0.00 | 63 | 999.9 |
| 20260504182828 | 56 | 122 | 2.0 | 12.0 | 0.00 | 0.00 | 0.00 | 63 | 1000.0 |
| 20260504182323 | 56 | 144 | 3.0 | 12.0 | 0.00 | 0.00 | 0.00 | 63 | 1000.1 |
| 20260504181839 | 56 | 234 | 3.0 | 7.0 | 0.00 | 0.00 | 0.00 | 64 | 1000.1 |
| 20260504181349 | 55 | 163 | 3.0 | 9.0 | 0.00 | 0.00 | 0.00 | 64 | 1000.1 |
| 20260504180817 | 55 | 126 | 3.0 | 11.0 | 0.00 | 0.00 | 0.00 | 64 | 1000.1 |
| 20260504180335 | 56 | 146 | 4.0 | 11.0 | 0.00 | 0.00 | 0.00 | 63 | 1000.1 |
| 20260504175821 | 56 | 82 | 4.0 | 10.0 | 0.00 | 0.00 | 0.00 | 63 | 1000.2 |
| 20260504175337 | 56 | 86 | 2.0 | 8.0 | 0.00 | 0.00 | 0.00 | 62 | 1000.2 |
| 20260504174846 | 56 | 159 | 3.0 | 8.0 | 0.00 | 0.00 | 0.00 | 62 | 1000.4 |
| 20260504174329 | 56 | 153 | 4.0 | 11.0 | 0.00 | 0.00 | 0.00 | 63 | 1000.5 |
| 20260504173822 | 56 | 197 | 4.0 | 15.0 | 0.00 | 0.00 | 0.00 | 64 | 1000.6 |
| 20260504173317 | 55 | 69 | 4.0 | 15.0 | 0.00 | 0.00 | 0.00 | 64 | 1000.7 |
| 20260504172831 | 56 | 198 | 4.0 | 15.0 | 0.00 | 0.00 | 0.00 | 63 | 1000.7 |
| 20260504172343 | 55 | 268 | 2.0 | 9.0 | 0.00 | 0.00 | 0.00 | 63 | 1000.7 |
| 20260504171815 | 55 | 184 | 3.0 | 10.0 | 0.00 | 0.00 | 0.00 | 63 | 1000.7 |
| 20260504171333 | 55 | 136 | 3.0 | 12.0 | 0.00 | 0.00 | 0.00 | 64 | 1000.8 |
| 20260504170827 | 54 | 171 | 3.0 | 12.0 | 0.00 | 0.00 | 0.00 | 64 | 1000.8 |
| 20260504170322 | 54 | 170 | 3.0 | 10.0 | 0.00 | 0.00 | 0.00 | 66 | 1001.0 |
| 20260504160329 | 53 | 157 | 3.0 | 10.0 | 0.00 | 0.00 | 0.00 | 65 | 1001.4 |